Regional Weather Roundup
Issued by NWS

Home | Current Version | Previous Version | Graphics & Text | Print | Product List | Glossary On
Versions: 1 2 3 4 5 6 7 8 9 10 11 12 13 14 15 16 17 18 19 20 21 22 23 24 25 26 27 28 29 30 31 32 33 34 35 36 37 38 39 40 41 42 43 44 45 46 47 48 49 50
000
ASUS43 KBIS 110610
RWRND

NORTH DAKOTA REGIONAL WEATHER ROUNDUP
NATIONAL WEATHER SERVICE BISMARCK ND
1200 AM CST THU FEB 11 2016

NOTE: "FAIR" INDICATES FEW OR NO CLOUDS BELOW 12,000 FEET WITH NO
SIGNIFICANT WEATHER AND/OR OBSTRUCTIONS TO VISIBILITY.


NDZ001>003-009>011-017-110700-
NORTHWEST NORTH DAKOTA

CITY           SKY/WX    TMP DP  RH WIND       PRES   REMARKS
WILLISTON      CLOUDY    26  21  81 SE7       30.13F WCI  18
6HR MIN TEMP:  26; 6HR MAX TEMP:  28;

MINOT          CLOUDY    13   6  74 SE3       30.18S
MINOT AFB      CLOUDY    10   8  91 S5        30.18S WCI   2
$$

NDZ018>021-031>035-040>046-110700-
SOUTHWEST NORTH DAKOTA

CITY           SKY/WX    TMP DP  RH WIND       PRES   REMARKS
BISMARCK       CLOUDY    17  10  74 SE7       30.19F WCI   8
6HR MIN TEMP:  17; 6HR MAX TEMP:  21;

DICKINSON      CLOUDY    24  21  88 S7        30.09S WCI  16
GARRISON         N/A     12   8  84 SE3       30.17S
6HR MIN TEMP:  11; 6HR MAX TEMP:  15;

HETTINGER ARPT CLOUDY    27  23  85 SE5       30.13S
$$

NDZ004>008-012>016-024-026-027-054-110700-
NORTHEAST NORTH DAKOTA

CITY           SKY/WX    TMP DP  RH WIND       PRES   REMARKS
GRAND FORKS    CLOUDY     2  -4  76 W3        30.31S
GRND FRKS AFB  PTCLDY    -1  -6  82 CALM      30.29F
$$

NDZ022-023-025-028>030-036>039-047>053-110700-
SOUTHEAST NORTH DAKOTA

CITY           SKY/WX    TMP DP  RH WIND       PRES   REMARKS
FARGO          CLOUDY     7  -2  66 N3        30.30F
6HR MIN TEMP:   7; 6HR MAX TEMP:  12;

JAMESTOWN      CLOUDY     5   0  79 S5        30.23F WCI  -4
$$




USA.gov is the U.S. government's official web portal to all federal, state and local government web resources and services.